[[{"header":{"parameterUnit":"m.s-1","parameterCategory":1,"la1":30.2991,"la2":30.254,"lo1":-89.0895,"lo2":-89.0444,"dy":0.0017,"dx":0.0017,"nx":28,"ny":28,"refTime":"2025-01-11T03:00:00:Z","depth":0,"parameterNumber":2,"parameterNumberName":"U-component_of_WINDS"},"data":[0,0,0,0,0,0,0,0,0,0,0,0,0,0,0,0,0,0,0,0,0,0,0,0,0,0,0,0,0,0,0,0,0,0,0,0,0,0,0,0,0,0,0,0,0,0,0,0,0,0,0,0,0,0,0,0,0,0,-5.4972,-5.4973,0,-5.4997,-5.4997,-5.4997,-5.4853,-5.4849,-5.4845,-5.4841,-5.4865,-5.4869,-5.4873,0,0,0,0,0,0,0,0,0,0,0,0,0,-5.4802,-5.4806,-5.4972,-5.4973,-5.4973,-5.4996,-5.4997,-5.4997,-5.4854,-5.4849,-5.4844,-5.4839,-5.4863,-5.4868,-5.4874,0,0,0,0,0,0,0,0,0,0,0,0,0,-5.4856,-5.4807,-5.4972,-5.4904,-5.4899,-5.4996,-5.4997,-5.4997,-5.4855,-5.4849,-5.4843,-5.4837,-5.4861,-5.4868,-5.4874,-5.5038,0,0,-5.4895,-5.4898,0,0,0,0,0,0,0,0,-5.4853,-5.4862,-5.4914,-5.4909,-5.4903,-5.4915,-5.4945,-5.5011,-5.4856,-5.4871,-5.4841,-5.4834,-5.4886,-5.4891,-5.4909,-5.5039,-5.504,-5.4895,-5.4899,-5.4902,-5.4904,0,0,0,0,0,0,0,-5.4849,-5.486,-5.4982,-5.4915,-5.4908,-5.4872,-5.4873,-5.4957,-5.4913,-5.487,-5.4859,-5.4864,-5.4882,-5.4903,-5.4908,-5.5041,-5.4895,-5.4901,-5.4905,-5.4908,-5.5307,-5.5313,0,0,0,0,0,0,-5.4855,-5.4858,-5.4981,-5.4983,-5.4862,-5.4881,-5.4881,-5.4918,-5.4912,-5.4905,-5.4869,-5.4857,-5.4894,-5.49,-5.4908,-5.5098,-5.4902,-5.4908,-5.4912,-5.53,-5.5308,-5.5315,0,0,0,0,0,0,-5.4852,-5.4867,-5.498,-5.4918,-5.4929,-5.489,-5.4932,-5.4921,-5.4941,-5.4911,-5.4903,-5.4898,-5.489,-5.4899,-5.5007,-5.5097,-5.4911,-5.4917,-5.5292,-5.5302,-5.5312,-5.5481,0,0,0,0,0,0,-5.4847,-5.4867,-5.4929,-5.492,-5.4933,-5.5079,-5.4937,-5.4926,-5.4953,-5.4938,-5.4936,-5.493,-5.4885,-5.4998,-5.5014,-5.5103,-5.4923,-5.5284,-5.5297,-5.5308,-5.5467,-5.5495,-5.552,0,0,0,0,0,-5.4842,-5.4975,-5.4933,-5.4948,-5.501,-5.5084,-5.5092,-5.5038,-5.4961,-5.5023,-5.5004,-5.493,-5.5086,-5.501,-5.5027,-5.5119,-5.5278,-5.5293,-5.5307,-5.5455,-5.549,-5.5519,0,0,0,0,0,0,-5.4995,-5.4973,-5.4925,-5.506,-5.5075,-5.506,-5.5136,-5.5077,-5.5113,-5.5097,-5.5029,-5.503,-5.5149,-5.5145,-5.5062,-5.5277,-5.5168,-5.5187,-5.5275,-5.5307,-5.5333,-5.533,-5.4928,0,0,0,0,0,-5.5045,-5.5107,-5.5085,-5.5206,-5.5216,-5.5176,-5.5206,-5.5163,-5.5176,-5.5181,-5.517,-5.5185,-5.5237,-5.5272,-5.5319,-5.5467,-5.5464,-5.5539,-5.5565,-5.5587,-5.5603,-5.568,-5.5713,-5.5364,-5.5364,-5.5363,0,0,-5.5147,-5.5143,-5.5186,-5.5237,-5.5243,-5.5309,-5.5181,-5.5257,-5.5304,-5.5193,-5.5293,-5.5286,-5.5298,-5.5427,-5.5483,-5.5428,-5.5699,-5.5606,-5.5624,-5.5628,-5.5699,-5.5732,-5.5761,-5.5374,-5.5372,-5.5371,0,0,-5.5366,-5.5371,-5.5471,-5.5482,-5.5494,-5.5466,-5.5491,-5.5485,-5.5476,-5.5577,-5.5494,-5.555,-5.5642,-5.5653,-5.5671,-5.5899,-5.5831,-5.5916,-5.6052,-5.6127,-5.6155,-5.6179,-5.6257,-5.6287,-5.5933,-5.5933,-5.5933,0,-5.5492,-5.5588,-5.5531,-5.5612,-5.5636,-5.5539,-5.564,-5.5653,-5.568,-5.5698,-5.5636,-5.5749,-5.575,-5.588,-5.5935,-5.5954,-5.5979,-5.5914,-5.6156,-5.6179,-5.6201,-5.6275,-5.6305,-5.5943,-5.5942,-5.5941,-5.594,0,-5.5741,-5.5809,-5.5889,-5.5918,-5.5951,-5.6042,-5.5998,-5.6039,-5.5995,-5.5974,-5.6078,-5.6077,-5.6121,-5.6149,-5.6106,-5.6273,-5.6238,-5.6168,-5.6055,-5.6245,-5.6313,-5.6341,-5.5957,-5.5954,-5.5951,-5.5948,0,0,-5.6054,-5.6052,-5.6081,-5.6093,-5.6101,-5.6152,-5.6239,-5.6283,-5.6318,-5.6342,-5.6411,-5.6492,-5.6427,-5.6448,-5.6406,-5.6473,-5.6651,-5.6394,-5.6393,-5.6439,-5.6832,-5.6882,-5.6916,-5.6608,-5.6613,-5.6618,-5.683,0,-5.6266,-5.6414,-5.6366,-5.6515,-5.6577,-5.6487,-5.6563,-5.6576,-5.656,-5.6609,-5.6591,-5.6648,-5.6559,-5.6571,-5.6634,-5.6616,-5.6728,-5.6601,-5.667,-5.6674,-5.6666,-5.6952,-5.7005,-5.7205,-5.6856,-5.6861,-5.6864,0,-5.6533,-5.6567,-5.6723,-5.672,-5.6744,-5.6813,-5.6849,-5.6898,-5.6911,-5.6895,-5.692,-5.6864,-5.6948,-5.684,-5.6955,-5.6869,-5.6895,-5.6892,-5.6898,-5.6899,-5.6778,-5.6958,-5.7268,-5.7297,-5.6906,-5.6903,-5.69,0,-5.6742,-5.6827,-5.6931,-5.6944,-5.6945,-5.6995,-5.6997,-5.7004,-5.7034,-5.7066,-5.7084,-5.7127,-5.7149,-5.7182,-5.7139,-5.7065,-5.726,-5.7148,-5.7247,-5.7248,-5.7288,-5.7286,-5.7604,-5.7312,-5.7312,-5.7311,-5.7311,0,-5.6982,-5.708,-5.7025,-5.7088,-5.7195,-5.714,-5.7248,-5.724,-5.7248,-5.7308,-5.7235,-5.7293,-5.7234,-5.7287,-5.7255,-5.7353,-5.7365,-5.7353,-5.7342,-5.7357,-5.7358,-5.737,-5.7354,-5.7319,-5.7318,-5.7316,-5.7315,0,-5.7232,-5.7199,-5.7306,-5.7298,-5.7299,-5.7378,-5.7371,-5.7429,-5.7409,-5.7486,-5.7501,-5.7469,-5.7527,-5.7489,-5.7548,-5.7526,-5.7654,-5.7626,-5.765,-5.7641,-5.774,-5.773,-5.8074,-5.8115,-5.7801,-5.7804,-5.7807,0,-5.7385,-5.7458,-5.746,-5.7495,-5.7502,-5.756,-5.759,-5.754,-5.7574,-5.7596,-5.7651,-5.7703,-5.7741,-5.7839,-5.782,-5.7865,-5.7835,-5.7953,-5.7841,-5.7853,-5.7833,-5.7827,-5.7833,-5.7974,-5.7978,-5.7981,-5.7983,0,-5.766,-5.764,-5.7686,-5.7728,-5.7766,-5.7797,-5.782,-5.7854,-5.7803,-5.7845,-5.7904,-5.7935,-5.7995,-5.8047,-5.8085,-5.8086,-5.8026,-5.802,-5.8044,-5.8057,-5.8066,-5.806,-5.7707,-5.801,-5.8008,-5.8006,-5.8004,-5.8003,-5.7863,-5.7924,-5.7934,-5.7988,-5.8002,-5.8026,-5.808,-5.8068,-5.8116,-5.8161,-5.8129,-5.8199,-5.8211,-5.8255,-5.8265,-5.8318,-5.827,-5.8306,-5.8314,-5.8323,-5.8335,-5.8062,-5.8325,-5.8324,-5.8324,-5.8323,-5.8322,0,-5.8131,-5.8134,-5.8185,-5.8221,-5.8264,-5.8206,-5.823,-5.8269,-5.8332,-5.8348,-5.8388,-5.8456,-5.8507,-5.8494,-5.8539,-5.8584,-5.8558,-5.8598,-5.8591,-5.8592,-5.8378,-5.835,-5.8618,-5.8618,-5.8618,-5.8618,-5.8618,-5.8618,-5.8275,-5.8374,-5.8356,-5.8461,-5.8463,-5.8531,-5.855,-5.8572,-5.8585,-5.8664,-5.8706,-5.8698,-5.8702,-5.8748,-5.8791,-5.8786,-5.8805,-5.8854,-5.8839,-5.8637,-5.8608,-5.858,-5.8553,-5.886,-5.886,-5.9048,-5.905,-5.9051]},{"header":{"parameterUnit":"m.s-1","parameterCategory":1,"la1":30.2991,"la2":30.254,"lo1":-89.0895,"lo2":-89.0444,"dy":0.0017,"dx":0.0017,"nx":28,"ny":28,"refTime":"2025-01-11T03:00:00:Z","depth":0,"parameterNumber":3,"parameterNumberName":"V-component_of_WINDS"},"data":[0,0,0,0,0,0,0,0,0,0,0,0,0,0,0,0,0,0,0,0,0,0,0,0,0,0,0,0,0,0,0,0,0,0,0,0,0,0,0,0,0,0,0,0,0,0,0,0,0,0,0,0,0,0,0,0,0,0,-0.727,-0.727,0,-0.7271,-0.7271,-0.7271,-0.7261,-0.7261,-0.726,-0.726,-0.7262,-0.7262,-0.7263,0,0,0,0,0,0,0,0,0,0,0,0,0,-0.7258,-0.7259,-0.727,-0.727,-0.727,-0.7271,-0.7271,-0.7271,-0.7261,-0.7261,-0.726,-0.726,-0.7262,-0.7262,-0.7263,0,0,0,0,0,0,0,0,0,0,0,0,0,-0.7262,-0.7259,-0.727,-0.7265,-0.7264,-0.7271,-0.7271,-0.7271,-0.7261,-0.7261,-0.726,-0.726,-0.7262,-0.7262,-0.7263,-0.7274,0,0,-0.7264,-0.7264,0,0,0,0,0,0,0,0,-0.7261,-0.7262,-0.7266,-0.7265,-0.7265,-0.7265,-0.7267,-0.7272,-0.7261,-0.7262,-0.726,-0.726,-0.7264,-0.7264,-0.7265,-0.7274,-0.7274,-0.7264,-0.7265,-0.7265,-0.7265,0,0,0,0,0,0,0,-0.7261,-0.7262,-0.727,-0.7266,-0.7265,-0.7262,-0.7262,-0.7268,-0.7265,-0.7262,-0.7262,-0.7262,-0.7263,-0.7265,-0.7265,-0.7274,-0.7264,-0.7265,-0.7265,-0.7265,-0.7289,-0.7289,0,0,0,0,0,0,-0.7262,-0.7262,-0.727,-0.727,-0.7262,-0.7263,-0.7263,-0.7265,-0.7265,-0.7265,-0.7262,-0.7261,-0.7264,-0.7264,-0.7265,-0.7276,-0.7265,-0.7265,-0.7265,-0.7288,-0.7289,-0.7289,0,0,0,0,0,0,-0.7261,-0.7263,-0.727,-0.7266,-0.7266,-0.7264,-0.7266,-0.7266,-0.7267,-0.7265,-0.7264,-0.7264,-0.7264,-0.7264,-0.7271,-0.7276,-0.7265,-0.7266,-0.7288,-0.7289,-0.7289,-0.7299,0,0,0,0,0,0,-0.7261,-0.7263,-0.7267,-0.7266,-0.7267,-0.7276,-0.7267,-0.7266,-0.7268,-0.7267,-0.7267,-0.7266,-0.7263,-0.727,-0.7271,-0.7276,-0.7266,-0.7288,-0.7288,-0.7289,-0.7299,-0.73,-0.7301,0,0,0,0,0,-0.7261,-0.7271,-0.7267,-0.7269,-0.7272,-0.7277,-0.7277,-0.7273,-0.7268,-0.7272,-0.727,-0.7266,-0.7275,-0.7271,-0.7272,-0.7278,-0.7287,-0.7288,-0.7289,-0.7298,-0.73,-0.7301,0,0,0,0,0,0,-0.7274,-0.7271,-0.7267,-0.7277,-0.7277,-0.7275,-0.7281,-0.7276,-0.7278,-0.7277,-0.7272,-0.7272,-0.7279,-0.7279,-0.7275,-0.7286,-0.728,-0.7281,-0.7287,-0.7288,-0.729,-0.729,-0.7266,0,0,0,0,0,-0.7278,-0.7282,-0.7279,-0.7288,-0.7288,-0.7284,-0.7286,-0.7282,-0.7283,-0.7283,-0.7282,-0.7282,-0.7284,-0.7286,-0.7289,-0.7298,-0.7297,-0.7302,-0.7303,-0.7305,-0.7306,-0.7308,-0.731,-0.7292,-0.7292,-0.7292,0,0,-0.7286,-0.7285,-0.7288,-0.729,-0.729,-0.7293,-0.7284,-0.7289,-0.7291,-0.7284,-0.7289,-0.7288,-0.7288,-0.7295,-0.7298,-0.7295,-0.731,-0.7306,-0.7307,-0.7307,-0.7309,-0.7311,-0.7313,-0.7292,-0.7292,-0.7292,0,0,-0.7303,-0.7303,-0.731,-0.7309,-0.7308,-0.7305,-0.7306,-0.7304,-0.7303,-0.7308,-0.7302,-0.7304,-0.7309,-0.7309,-0.7309,-0.7322,-0.7318,-0.7323,-0.7331,-0.7334,-0.7335,-0.7336,-0.734,-0.7341,-0.7324,-0.7324,-0.7324,0,-0.7314,-0.7319,-0.7314,-0.7318,-0.7318,-0.731,-0.7316,-0.7315,-0.7315,-0.7316,-0.7312,-0.7316,-0.7316,-0.7321,-0.7324,-0.7325,-0.7326,-0.7324,-0.7335,-0.7337,-0.7338,-0.7341,-0.7342,-0.7325,-0.7325,-0.7325,-0.7324,0,-0.7332,-0.7335,-0.734,-0.7339,-0.734,-0.7345,-0.7339,-0.7341,-0.7336,-0.7333,-0.7338,-0.7336,-0.7337,-0.7338,-0.7335,-0.7343,-0.7341,-0.7336,-0.733,-0.734,-0.7343,-0.7344,-0.7326,-0.7325,-0.7325,-0.7325,0,0,-0.7359,-0.7352,-0.7354,-0.7353,-0.735,-0.7352,-0.7355,-0.7355,-0.7356,-0.7356,-0.7358,-0.7361,-0.7356,-0.7356,-0.7352,-0.7354,-0.7363,-0.7349,-0.7349,-0.7351,-0.737,-0.7373,-0.7375,-0.7359,-0.736,-0.736,-0.7369,0,-0.7375,-0.738,-0.7374,-0.7381,-0.7383,-0.7374,-0.7376,-0.7374,-0.7371,-0.7372,-0.7368,-0.737,-0.7363,-0.7363,-0.7365,-0.7361,-0.7366,-0.7361,-0.7361,-0.7361,-0.7361,-0.7376,-0.738,-0.739,-0.7371,-0.7371,-0.7371,0,-0.7394,-0.7393,-0.74,-0.7393,-0.7394,-0.7397,-0.7395,-0.7396,-0.7393,-0.739,-0.7388,-0.7383,-0.7385,-0.7378,-0.738,-0.7376,-0.7376,-0.7374,-0.7374,-0.7374,-0.7367,-0.7376,-0.7393,-0.7394,-0.7373,-0.7373,-0.7373,0,-0.7412,-0.7412,-0.7415,-0.7414,-0.7408,-0.7409,-0.7407,-0.7403,-0.7402,-0.7401,-0.74,-0.7399,-0.7398,-0.7397,-0.739,-0.7386,-0.7393,-0.7386,-0.739,-0.739,-0.7392,-0.7392,-0.7408,-0.7392,-0.7392,-0.7392,-0.7392,0,-0.743,-0.7434,-0.7423,-0.7425,-0.7429,-0.7421,-0.7425,-0.7421,-0.7417,-0.7418,-0.741,-0.741,-0.7402,-0.7402,-0.7397,-0.7398,-0.7398,-0.7396,-0.7394,-0.7396,-0.7396,-0.7396,-0.7395,-0.7392,-0.7392,-0.7392,-0.7392,0,-0.7451,-0.7444,-0.7446,-0.7439,-0.7437,-0.744,-0.7433,-0.7434,-0.7429,-0.743,-0.743,-0.7422,-0.7421,-0.7414,-0.7412,-0.7408,-0.7411,-0.7409,-0.7412,-0.7411,-0.7415,-0.7415,-0.7432,-0.7433,-0.7417,-0.7417,-0.7417,0,-0.7463,-0.7465,-0.7457,-0.7456,-0.7454,-0.7453,-0.7452,-0.7443,-0.7442,-0.7437,-0.7439,-0.7436,-0.7434,-0.7432,-0.7426,-0.7424,-0.7421,-0.7427,-0.7421,-0.7422,-0.742,-0.742,-0.7419,-0.7428,-0.7429,-0.7429,-0.7429,0,-0.7484,-0.7479,-0.7478,-0.7474,-0.7472,-0.7469,-0.7466,-0.7466,-0.7456,-0.7455,-0.7453,-0.7451,-0.7447,-0.7445,-0.7441,-0.7438,-0.7431,-0.7431,-0.7431,-0.7433,-0.7435,-0.7433,-0.7415,-0.7431,-0.743,-0.743,-0.743,-0.743,-0.75,-0.7501,-0.7495,-0.7492,-0.7488,-0.7485,-0.7485,-0.7479,-0.7477,-0.7472,-0.7467,-0.7465,-0.746,-0.7453,-0.745,-0.7448,-0.7445,-0.7446,-0.7447,-0.7447,-0.7447,-0.7435,-0.7448,-0.7448,-0.7448,-0.7447,-0.7447,0,-0.752,-0.7515,-0.7513,-0.7507,-0.7505,-0.7498,-0.7493,-0.7491,-0.749,-0.7485,-0.7482,-0.7478,-0.7475,-0.7468,-0.7464,-0.7463,-0.746,-0.7463,-0.7462,-0.7461,-0.7451,-0.745,-0.7465,-0.7465,-0.7465,-0.7465,-0.7465,-0.7465,-0.753,-0.7531,-0.7525,-0.7523,-0.7518,-0.7515,-0.7513,-0.7509,-0.7504,-0.7501,-0.7498,-0.7492,-0.7486,-0.7481,-0.7477,-0.7475,-0.7474,-0.7477,-0.7474,-0.7464,-0.7463,-0.7461,-0.746,-0.7477,-0.7477,-0.7484,-0.7484,-0.7484]}]]